Terug naar catalogus

YAOGAN-30 AB

ActiefMilitairVLEO
NORAD 48861·PAYLOAD·🇨🇳 China

Gelanceerd Jun 18, 2021 vanaf Xichang Satellite Launch Center

Loading…

Volgende Passages (komende 24 uur)

TLE

VersSource: Space-Track

Epoch: Sep 14, 2026, 14:23 UTC

1 48861U 21055B   26257.59960059  .00001824  00000-0  13475-3 0  9993
2 48861  34.9965 326.7627 0003452 153.4826 206.6059 15.03058543286638

Volg YAOGAN-30 AB in realtime met AllMySat

Download on the App Store